CZ-4 DEB, 26126

Orbit data source: Space-Track

CZ-4 DEB, 26126 is space debris in SSO originally from a launch on Thu, 14 Oct 1999 UTC launched from the Taiyaun Space Center, China (TSC). Debris objects in space refer to the collection of defunct objects orbiting the Earth. Examples of debris include non-operational satellites, rocket bodies, and fragments generated from explosions, collisions, or faulty payload assembly.

Loading next visibility...
Identifier
26126, 1999-057N
Orbit
SSO
Country
Flag of CNCN / PRC
Related business
Manufacturer
Unknown
Mission
Spacecraft
Bus & Motor
Unknown
Mass
Unknown
Launch date (UTC)
1999-10-14 (26 years ago)
Launch vehicle
Unknown
Launch site
Taiyaun Space Center, China (TSC)
Object type
Payload
Rocket body
Debris
Shape & HBR
Unknown shape, 0.1 m
Radar Cross Section
Small (<0.1 m²)

Expand to show TLE details & history
Last TLE update: 8 hours ago

TLE from 8 hours ago
0 CZ-4 DEB
1 26126U 99057N   26038.10924943  .00001944  00000-0  54033-3 0  9994
2 26126  98.6480  90.2856 0094259 208.2232 207.0834 14.45062596356978
Epoch: 2026-02-07T02:37Z
TLE epoch observation values (Epoch: 2026-02-07T02:37:19.150Z)
Latitude
54.00694°
Longitude
-98.30343°
Altitude
810.574 km
Speed
7.422 km/s
True Right ascension
05h 13m 03s
True Declination
53° 50' 40"
Sunlit
Object was in full shadow at epoch
Visualization orbit readout
Latitude
Unknown
Longitude
Unknown
Altitude
Unknown
Speed
Unknown
Apparent Right ascension
Unknown
Apparent Declination
Unknown
Sunlit
N/A
Visualization observer readout
Local Sidereal Time
12:23:36
Azimuth
Unknown
Elevation
Unknown
Doppler factor
Unknown
Orbital elements
Apogee altitude
806.027 km
Perigee altitude
671.857 km
Semi-major axis
7,117.079 km
Eccentricity
0.00943
Inclination
98.648°
RAAN
90.2856°
Arg. of periapsis
208.2232°
True anomaly
206.59674°
Mean anomaly
207.0834°
Eccentric anomaly
206.83956°
Mean motion
3.61485 °/min
Orbital period
99.59 mins
BSTAR
0.00054033
Loading maneuver chart data...
Computing Atmospheric mass density...

Documentation

Showing up to 5 results
|